EW9776 Weather Reports


Display with metric or nautical units.
time (UTC)temp
F
wind
direction
speed
MPH
gust
MPH
rain 1hr
in
rain 24hr
in
rain mn
in
humidity
%
barometer
mb
20260903020035 56 290 2.0 4.0 0.06 2.84 2.78 96 1009.7
20260903014536 56 87 0.0 3.0 0.03 2.78 2.78 96 1009.4
20260903013111 56 142 0.0 2.0 0.04 2.78 2.78 96 1009.4
20260903011535 56 68 0.0 3.0 0.04 2.78 2.78 96 1009.5
20260903010033 56 43 1.0 4.0 2.62 2.78 2.75 95 1009.6
20260903004536 56 26 2.0 4.0 2.59 2.75 2.74 95 1009.6
20260903003037 57 6 3.0 5.0 2.59 2.74 2.74 95 1009.6
20260903001529 57 353 2.0 4.0 2.59 2.74 0.16 95 1009.6
20260903000035 57 357 2.0 4.0 0.01 0.16 0.16 95 1009.5
20260902234609 57 6 2.0 4.0 0.03 0.16 0.15 95 1009.6
20260902233034 57 337 0.0 3.0 0.02 0.15 0.15 95 1009.7
20260902231534 57 299 2.0 4.0 0.02 0.15 0.15 95 1009.8
20260902230035 57 307 2.0 5.0 0.02 0.15 0.13 94 1009.8
20260902220109 57 306 2.0 5.0 0.06 0.13 0.10 92 1009.5
20260902213037 58 322 3.0 6.0 0.06 0.10 0.07 89 1009.5
20260902211536 58 331 2.0 5.0 0.06 0.07 0.07 89 1009.5
20260902210035 58 105 0.0 2.0 0.06 0.07 0.04 88 1009.5
20260902204534 58 90 1.0 4.0 0.03 0.04 0.04 87 1009.7
20260902203144 59 46 1.0 4.0 0.03 0.04 0.01 85 1009.8
20260902201534 59 14 2.0 5.0 0.01 0.01 0.01 84 1009.8
20260902200032 59 3 2.0 6.0 0.01 0.01 0.01 83 1009.7
20260902193037 60 323 0.0 3.0 0.01 0.01 0.00 77 1009.7
20260902191543 61 300 2.0 5.0 0.00 0.00 0.00 73 1009.6
20260902183037 61 288 2.0 5.0 0.00 0.00 0.00 70 1009.6
20260902180035 60 296 2.0 5.0 0.00 0.00 0.00 72 1009.6
20260902174609 60 296 4.0 7.0 0.00 0.00 0.00 72 1009.6
20260902173037 61 302 4.0 7.0 0.00 0.00 0.00 70 1009.6
20260902171535 62 320 4.0 8.0 0.00 0.00 0.00 68 1009.8
20260902170036 63 336 4.0 8.0 0.00 0.00 0.00 67 1009.8
20260902164534 62 333 3.0 6.0 0.00 0.00 0.00 69 1010.0
20260902163035 60 23 1.0 4.0 0.00 0.00 0.00 73 1010.3
20260902160035 59 41 2.0 5.0 0.00 0.00 0.00 75 1010.7
20260902154534 59 28 3.0 6.0 0.00 0.00 0.00 76 1010.7
20260902153035 58 34 3.0 7.0 0.00 0.00 0.00 78 1010.8
20260902151533 56 41 0.0 3.0 0.00 0.00 0.00 81 1010.9
20260902144643 55 113 0.0 2.0 0.00 0.00 0.00 83 1011.2
20260902141610 53 162 1.0 3.0 0.00 0.00 0.00 86 1011.5
20260902140036 51 95 1.0 5.0 0.00 0.00 0.00 89 1011.4
20260902133038 50 106 0.0 2.0 0.00 0.00 0.00 90 1011.5
20260902131538 50 139 1.0 3.0 0.00 0.00 0.00 89 1011.6
20260902130037 50 86 0.0 4.0 0.00 0.00 0.00 89 1011.5
20260902124538 50 81 1.0 4.0 0.00 0.00 0.00 89 1011.6
20260902123038 51 99 1.0 5.0 0.00 0.00 0.00 90 1011.6
20260902121536 51 144 3.0 4.0 0.00 0.00 0.00 89 1011.6
20260902120030 51 159 1.0 4.0 0.00 0.00 0.00 88 1011.7
20260902114609 52 191 2.0 6.0 0.00 0.00 0.00 87 1011.8
20260902113035 52 100 1.0 4.0 0.00 0.00 0.00 87 1011.8
20260902111536 53 46 3.0 6.0 0.00 0.00 0.00 84 1011.8
20260902104535 54 35 1.0 4.0 0.00 0.00 0.00 81 1011.9
20260902103035 56 36 1.0 4.0 0.00 0.00 0.00 76 1012.1
20260902101535 56 275 0.0 6.0 0.00 0.00 0.00 75 1012.2
20260902100033 55 302 2.0 6.0 0.00 0.00 0.00 78 1012.2
20260902094535 56 334 2.0 6.0 0.00 0.00 0.00 78 1012.2
20260902093141 58 18 2.0 6.0 0.00 0.00 0.00 71 1012.4
20260902091534 58 260 4.0 12.0 0.00 0.00 0.00 70 1012.5
20260902084535 58 291 3.0 10.0 0.00 0.00 0.00 69 1012.4
20260902083038 56 273 2.0 13.0 0.00 0.00 0.00 77 1012.5
20260902080033 57 310 2.0 5.0 0.00 0.00 0.00 75 1012.5
20260902074534 59 265 3.0 9.0 0.00 0.00 0.00 68 1012.6
20260902073035 59 276 5.0 14.0 0.00 0.00 0.00 67 1012.6
20260902071611 60 271 5.0 14.0 0.00 0.00 0.00 66 1012.8
20260902070033 60 266 6.0 12.0 0.00 0.00 0.00 66 1013.1
20260902064536 61 269 5.0 11.0 0.00 0.00 0.00 66 1013.2
20260902063030 60 256 6.0 11.0 0.00 0.00 0.00 68 1013.4
20260902061536 60 287 3.0 10.0 0.00 0.00 0.00 68 1013.4
20260902060036 61 285 3.0 9.0 0.00 0.00 0.00 64 1013.4
20260902054534 61 267 5.0 12.0 0.00 0.00 0.00 63 1013.4
20260902051530 62 253 6.0 14.0 0.00 0.00 0.00 61 1013.2
20260902050109 62 244 7.0 18.0 0.00 0.00 0.00 62 1013.0
20260902044530 62 252 5.0 15.0 0.00 0.00 0.00 63 1012.9
20260902043109 62 245 5.0 13.0 0.00 0.00 0.00 62 1012.8
20260902041536 62 248 5.0 12.0 0.00 0.00 0.00 61 1012.6
20260902040035 62 264 6.0 14.0 0.00 0.00 0.00 61 1012.5
20260902034535 62 266 4.0 10.0 0.00 0.00 0.00 61 1012.2
20260902033034 62 277 5.0 18.0 0.00 0.00 0.00 61 1012.2
20260902030110 62 249 7.0 17.0 0.00 0.00 0.00 60 1012.4
20260902024535 62 248 6.0 18.0 0.00 0.00 0.00 60 1012.4
20260902023142 63 253 5.0 14.0 0.00 0.00 0.00 59 1012.1
20260902021537 63 258 5.0 14.0 0.00 0.00 0.00 58 1012.1